Weather History for Pittsfield, IL

Change the Weather History Date:

Monday, March 4, 2013

  Actual Average (KUIN) Record (KUIN)
Temperature  
Mean Temperature 38 °F 37 °F  
Max Temperature 43 °F 46 °F 73 °F (1961)
Min Temperature 32 °F 28 °F -8 °F (1978)
Degree Days  
Heating Degree Days 28 28  
Month to date heating degree days 114  
Since 1 July heating degree days 4456  
Cooling Degree Days 0 0  
Month to date cooling degree days 0  
Year to date cooling degree days 0  
Moisture  
Dew Point 29 °F    
Average Humidity 75    
Maximum Humidity 87    
Minimum Humidity 59    
Precipitation  
Precipitation 0.00 in 0.08 in 1.74 in (1964)
Month to date precipitation 0.32  
Year to date precipitation 3.72  
Sea Level Pressure  
Sea Level Pressure 29.88 in    
Wind  
Wind Speed 12 mph (East)    
Max Wind Speed 21 mph    
Max Gust Speed 24 mph    
Visibility 10 miles    
Events Rain , Snow    
T = Trace of Precipitation, MM = Missing Value Source: NWS Daily Summary

Daily Weather History Graph

Daily Weather History Graph

Search for Another Location

Airport:

Trip Planner

Search our weather history database for the weather conditions in past years. The results will help you decide how hot, cold, wet, or windy it might be!

Date:

Astronomy

Mar. 04, 2013 Rise Set
Actual Time 6:31 AM CST 5:58 PM CST
Civil Twilight 6:04 AM CST 6:25 PM CST
Nautical Twilight 5:33 AM CST 6:56 PM CST
Astronomical Twilight 5:01 AM CST 7:28 PM CST
Moon 12:40 AM CST (3/4) 10:41 AM CST (3/4)
Length of Visible Light 12h 21m
Length of Day
11h 27m
Waning Gibbous, 52% of the Moon is Illuminated
Mar 4
Waning Gibbous
Mar 4
Last Quarter
Mar 11
New
Mar 19
First Quarter
Mar 27
Full

Hourly Weather History & Observations

Time (CST) Temp. Windchill Dew Point Humidity Pressure Visibility Wind Dir Wind Speed Gust Speed Precip Events Conditions
12:15 AM 32.4 °F 25.3 °F 24.3 °F 72% 30.03 in 10.0 mi ESE 8.1 mph - N/A   Overcast
12:35 AM 32.7 °F 25.7 °F 24.6 °F 72% 30.03 in 10.0 mi SE 8.1 mph - N/A   Overcast
12:55 AM 32.7 °F 25.0 °F 24.8 °F 73% 30.04 in 10.0 mi SE 9.2 mph - N/A   Overcast
1:15 AM 32.9 °F 25.9 °F 25.0 °F 73% 30.03 in 10.0 mi ESE 8.1 mph - N/A   Overcast
1:35 AM 32.9 °F 24.7 °F 25.5 °F 74% 30.02 in 7.0 mi East 10.4 mph - N/A   Overcast
1:55 AM 32.5 °F 22.7 °F 26.2 °F 78% 30.00 in 7.0 mi East 13.8 mph - N/A   Overcast
2:15 AM 32.2 °F 23.8 °F 26.8 °F 80% 30.00 in 5.0 mi East 10.4 mph - N/A   Haze
2:35 AM 32.0 °F 23.0 °F 27.3 °F 83% 30.00 in 5.0 mi East 11.5 mph - N/A Snow Light Snow
2:55 AM 32.0 °F 23.0 °F 27.9 °F 85% 29.99 in 5.0 mi ESE 11.5 mph - N/A Snow Light Snow
3:15 AM 32.0 °F 23.0 °F 28.0 °F 85% 29.98 in 5.0 mi East 11.5 mph - N/A Snow Light Snow
3:35 AM 32.0 °F 23.0 °F 28.4 °F 87% 29.96 in 10.0 mi East 11.5 mph 17.3 mph N/A   Overcast
3:55 AM 32.0 °F 22.5 °F 28.4 °F 87% 29.96 in 10.0 mi East 12.7 mph - N/A   Overcast
4:15 AM 32.0 °F 22.5 °F 28.4 °F 87% 29.94 in 10.0 mi East 12.7 mph - N/A Rain Light Rain
4:35 AM 32.2 °F 22.3 °F 28.4 °F 86% 29.95 in 10.0 mi ESE 13.8 mph - N/A   Scattered Clouds
4:55 AM 32.2 °F 21.4 °F 28.6 °F 87% 29.95 in 10.0 mi ESE 16.1 mph - N/A   Scattered Clouds
5:15 AM 32.2 °F 21.8 °F 28.4 °F 86% 29.94 in 10.0 mi ESE 15.0 mph - N/A   Clear
5:35 AM 32.0 °F 21.6 °F 28.4 °F 87% 29.94 in 10.0 mi ESE 15.0 mph - N/A   Clear
5:55 AM 32.2 °F 21.8 °F 28.4 °F 86% 29.94 in 10.0 mi ESE 15.0 mph - N/A   Mostly Cloudy
6:15 AM 32.2 °F 21.8 °F 28.4 °F 86% 29.93 in 10.0 mi ESE 15.0 mph - N/A   Overcast
6:35 AM 32.0 °F 22.5 °F 28.2 °F 86% 29.93 in 10.0 mi ESE 12.7 mph 18.4 mph N/A   Mostly Cloudy
6:55 AM 32.0 °F 22.5 °F 27.9 °F 85% 29.91 in 10.0 mi ESE 12.7 mph 19.6 mph N/A   Clear
7:15 AM 32.5 °F 23.7 °F 28.0 °F 83% 29.91 in 10.0 mi ESE 11.5 mph - N/A   Scattered Clouds
7:35 AM 33.1 °F 23.0 °F 28.2 °F 82% 29.91 in 10.0 mi ESE 15.0 mph - N/A   Mostly Cloudy
7:55 AM 33.3 °F 24.1 °F 27.5 °F 79% 29.91 in 10.0 mi ESE 12.7 mph 21.9 mph N/A   Mostly Cloudy
8:15 AM 34.2 °F 24.0 °F 27.5 °F 77% 29.90 in 10.0 mi ESE 16.1 mph - N/A   Scattered Clouds
8:35 AM 34.9 °F 24.6 °F 27.7 °F 75% 29.89 in 10.0 mi ESE 17.3 mph 21.9 mph N/A   Clear
8:55 AM 36.0 °F 26.7 °F 28.2 °F 73% 29.90 in 10.0 mi ESE 15.0 mph - N/A   Clear
9:15 AM 36.5 °F 26.3 °F 27.9 °F 71% 29.89 in 10.0 mi ESE 18.4 mph - N/A   Clear
9:35 AM 37.0 °F 27.0 °F 28.0 °F 70% 29.88 in 10.0 mi ESE 18.4 mph 23.0 mph N/A   Clear
9:55 AM 37.4 °F 28.2 °F 27.9 °F 68% 29.88 in 10.0 mi ESE 16.1 mph - N/A   Clear
10:15 AM 37.9 °F 28.5 °F 27.7 °F 67% 29.87 in 10.0 mi ESE 17.3 mph - N/A   Clear
10:35 AM 38.3 °F 29.7 °F 28.2 °F 67% 29.86 in 10.0 mi ESE 15.0 mph - N/A   Clear
10:55 AM 38.5 °F 28.9 °F 27.5 °F 65% 29.86 in 10.0 mi ESE 18.4 mph 23.0 mph N/A   Clear
11:15 AM 38.8 °F 28.8 °F 27.5 °F 64% 29.84 in 10.0 mi ESE 20.7 mph 24.2 mph N/A   Clear
11:35 AM 39.2 °F 31.6 °F 28.0 °F 64% 29.85 in 10.0 mi ESE 12.7 mph 21.9 mph N/A   Clear
11:55 AM 39.6 °F 32.1 °F 28.2 °F 64% 29.85 in 10.0 mi ESE 12.7 mph - N/A   Clear
12:15 PM 39.9 °F 32.5 °F 28.4 °F 63% 29.85 in 10.0 mi ESE 12.7 mph 18.4 mph N/A   Clear
12:55 PM 40.5 °F 33.2 °F 29.1 °F 64% 29.83 in 10.0 mi ESE 12.7 mph 20.7 mph N/A   Clear
1:15 PM 41.5 °F 34.6 °F 29.3 °F 62% 29.82 in 10.0 mi ESE 12.7 mph - N/A   Clear
1:35 PM 41.5 °F 34.6 °F 29.7 °F 63% 29.81 in 10.0 mi ESE 12.7 mph - N/A   Clear
1:55 PM 42.6 °F 35.9 °F 30.2 °F 61% 29.80 in 10.0 mi ESE 12.7 mph - N/A   Clear
2:15 PM 43.2 °F 37.4 °F 30.2 °F 60% 29.80 in 10.0 mi East 10.4 mph - N/A   Clear
2:35 PM 43.7 °F 37.7 °F 30.0 °F 59% 29.80 in 10.0 mi East 11.5 mph - N/A   Clear
2:55 PM 43.2 °F 37.4 °F 30.6 °F 61% 29.80 in 10.0 mi East 10.4 mph - N/A   Clear
3:15 PM 42.8 °F 36.2 °F 30.9 °F 63% 29.80 in 10.0 mi East 12.7 mph - N/A   Clear
3:35 PM 42.8 °F 36.6 °F 31.1 °F 63% 29.79 in 10.0 mi East 11.5 mph 17.3 mph N/A   Clear
3:55 PM 41.9 °F 35.4 °F 31.1 °F 66% 29.79 in 10.0 mi East 11.5 mph - N/A   Clear
4:15 PM 41.9 °F 35.9 °F 31.5 °F 66% 29.80 in 10.0 mi ENE 10.4 mph - N/A   Clear
4:35 PM 41.5 °F 35.9 °F 31.8 °F 68% 29.80 in 10.0 mi East 9.2 mph - N/A   Clear
4:55 PM 40.6 °F 34.8 °F 32.0 °F 71% 29.81 in 10.0 mi ENE 9.2 mph - N/A   Clear
5:15 PM 40.3 °F 33.9 °F 32.0 °F 72% 29.81 in 10.0 mi ENE 10.4 mph - N/A   Clear
5:35 PM 40.1 °F 33.6 °F 32.0 °F 73% 29.82 in 10.0 mi ENE 10.4 mph - N/A   Clear
5:55 PM 39.2 °F 33.0 °F 32.0 °F 75% 29.82 in 10.0 mi ENE 9.2 mph - N/A   Clear
6:15 PM 38.5 °F 32.1 °F 32.0 °F 78% 29.83 in 10.0 mi NE 9.2 mph - N/A   Clear
6:35 PM 38.3 °F 31.9 °F 32.0 °F 78% 29.84 in 10.0 mi ENE 9.2 mph - N/A   Clear
6:55 PM 37.9 °F 30.9 °F 31.8 °F 79% 29.85 in 10.0 mi ENE 10.4 mph - N/A   Clear
7:15 PM 37.8 °F 31.3 °F 31.6 °F 79% 29.85 in 10.0 mi NE 9.2 mph - N/A   Clear
7:35 PM 37.4 °F 29.3 °F 31.6 °F 80% 29.86 in 10.0 mi ENE 12.7 mph - N/A   Clear
7:55 PM 37.0 °F 28.9 °F 31.3 °F 80% 29.86 in 10.0 mi ENE 12.7 mph - N/A   Clear
8:15 PM 37.4 °F 30.3 °F 32.0 °F 81% 29.86 in 10.0 mi NE 10.4 mph - N/A   Clear
8:35 PM 36.5 °F 28.7 °F 31.1 °F 81% 29.86 in 10.0 mi NE 11.5 mph - N/A   Clear
8:55 PM 36.1 °F 28.7 °F 30.7 °F 81% 29.86 in 10.0 mi NE 10.4 mph - N/A   Clear
9:15 PM 35.6 °F 28.0 °F 30.6 °F 82% 29.86 in 10.0 mi NE 10.4 mph - N/A   Clear
9:35 PM 35.6 °F 28.0 °F 30.6 °F 82% 29.86 in 10.0 mi NE 10.4 mph - N/A   Scattered Clouds
9:55 PM 35.8 °F 28.8 °F 30.6 °F 81% 29.87 in 10.0 mi ENE 9.2 mph - N/A   Mostly Cloudy
10:15 PM 36.0 °F 29.0 °F 30.7 °F 81% 29.87 in 10.0 mi ENE 9.2 mph - N/A   Mostly Cloudy
10:35 PM 36.0 °F 29.0 °F 30.7 °F 81% 29.86 in 10.0 mi ENE 9.2 mph - N/A   Mostly Cloudy
10:55 PM 35.8 °F 30.1 °F 30.7 °F 82% 29.86 in 10.0 mi ENE 6.9 mph - N/A   Scattered Clouds
11:15 PM 36.0 °F 31.1 °F 30.7 °F 81% 29.85 in 10.0 mi ENE 5.8 mph - N/A   Scattered Clouds
11:35 PM 35.8 °F 31.9 °F 30.7 °F 82% 29.85 in 10.0 mi NE 4.6 mph - N/A   Mostly Cloudy
11:55 PM 35.4 °F 29.7 °F 31.1 °F 84% 29.85 in 10.0 mi NE 6.9 mph - N/A Rain Rain